Location: Unspecified
(0.0000°N, 0.0000°E)
Time: 12:48:32
(UTC+00:00)

Explorer 11/Cluster Stage 4 - Pass Details

Date: 24 September 2019
Orbit: 467 x 1259 km, 28.8° (Epoch: 13 October)

Event Time Altitude Azimuth Distance (km) Brightness Sun altitude
Rises 18:33:26 0° 271° (W) 4,199 12.7 -10.3°
Reaches altitude 10° 18:37:14 10° 285° (WNW) 3,209 11.1 -11.3°
Maximum altitude 18:43:06 22° 332° (NNW) 2,350 9.3 -12.8°
Drops below altitude 10° 18:48:34 10° 19° (NNE) 2,948 9.3 -14.1°
Sets 18:51:54 0° 34° (NE) 3,775 9.7 -15.0°
Enters shadow 18:52:00 - 35° (NE) 3,801 9.8 -15.0°
